SCP
0 0 0 0 0 0 0 0 0 0 0 0 0 0 0 0 0 0 0 0 0 0 0 0 0 0 0 0 0 0 0 0
0 0 0 0 0 0 0 0 0 0 0 0 0 0 0 0 0 0 0 0 0 0 0 0 0 0 0 0 0 0 0 0
0 0 0 0 0 0 0 0 0 0 0 0 0 0 0 0 0 0 0 0 0 0 0 0 0 0 0 0 0 0 0 0
0 0 0 0 0 0 0 0 0 0 0 0 0 0 0 0 0 0 0 0 0 0 0 0 0 0 0 0 0 0 0 0
0 0 0 0 0 0 0 0 0 0 0 0 0 0 0 0 0 0 0 0 0 0 0 0 0 0 0 0 0 0 0 0
0 0 0 0 0 0 0 0 0 0 0 0 0 0 0 0 0 0 0 0 0 0 0 0 0 0 0 0 0 0 0 0
0 0 0 0 0 0 0 0 0 0 0 0 0 0 0 0 0 0 0 0 0 0 0 0 0 0 0 0 0 0 0 0
0 0 0 0 0 0 0 0 0 0 0 0 0 0 0 0 0 0 0 0 0 0 0 0 0 0 0 0 0 0 0 0
0 0 0 0 0 0 0 0 0 0 0 0 0 0 0 0 0 0 0 0 0 0 0 0 0 0 0 0 0 0 0 0
0 0 0 0 0 0 0 0 0 0 0 0 0 0 0 0 0 0 0 0 0 0 0 0 0 0 0 0 0 0 0 0
0 0 0 0 0 0 0 0 0 0 0 0 0 0 0 0 0 0 0 0 0 0 0 0 0 0 0 0 0 0 0 0
0 0 0 0 0 0 0 0 0 0 0 0 0 0 0 0 0 0 0 0 0 0 0 0 0 0 0 0 0 0 0 0
0 0 0 0 0 0 0 0 0 0 0 0 0 0 0 0 0 0 0 0 0 0 0 0 0 0 0 0 0 0 0 0
0 0 0 0 0 0 0 0 0 0 0 0 0 0 0 0 0 0 0 0 0 0 0 0 0 0 0 0 0 0 0 0
0 0 0 0 0 0 0 0 0 0 0 0 0 0 0 0 0 0 0 0 0 0 0 0 0 0 0 0 0 0 0 0
0 0 0 0 0 0 0 0 0 0 0 0 0 0 0 0 0 0 0 0 0 0 0 0 0 0 0 0 0 0 0 0
0 0 0 0 0 0 0 0 0 0 0 0 0 0 0 0 0 0 0 0 0 0 0 0 0 0 0 0 0 0 0 0
0 0 0 0 0 0 0 0 0 0 0 0 0 0 0 0 0 0 0 0 0 0 0 0 0 0 0 0 0 0 0 0
0 0 0 0 0 0 0 0 0 0 0 0 0 0 0 0 0 0 0 0 0 0 0 0 0 0 0 0 0 0 0 0
0 0 0 0 0 0 0 0 0 0 0 0 0 0 0 0 0 0 0 0 0 0 0 0 0 0 0 0 0 0 0 0
Wind_Speed_500mb
59 53 54 58 56 57 55 65 70 74 79 84 87 89 85 82 78 73 69 73 73 71 69 68 67 66 67 71 71 76 78 80
42 39 35 40 47 53 57 54 59 63 70 76 80 82 84 87 79 75 75 72 70 66 65 65 63 61 62 64 64 69 68 69
35 37 35 33 35 36 41 51 50 49 54 58 62 67 73 76 77 72 69 66 64 60 61 60 59 58 59 60 59 60 63 64
21 22 26 29 23 21 21 22 27 33 38 44 47 50 52 58 63 63 62 61 59 58 60 61 60 59 62 60 59 61 61 61
13 4 7 7 6 8 9 11 15 21 27 34 41 45 49 54 58 60 58 58 58 57 55 58 57 56 57 57 53 54 57 57
24 14 8 5 5 5 4 5 8 12 16 22 29 38 45 51 56 57 57 56 52 50 50 49 53 51 56 56 53 64 55 68
32 26 18 18 17 16 16 18 21 25 27 29 30 32 34 37 39 41 45 49 51 52 52 51 53 51 53 60 51 46 39 43
49 37 31 30 28 27 29 29 30 33 34 36 36 35 34 33 32 31 30 30 30 31 35 38 41 42 41 47 47 50 48 51
62 54 47 42 38 36 36 35 34 37 37 35 32 30 29 28 26 23 21 21 22 22 25 30 31 37 43 47 46 40 38 39
71 67 55 49 41 39 39 34 32 31 31 30 29 27 26 23 21 19 16 15 15 15 17 20 20 21 20 17 20 21 22 25
74 65 61 53 46 41 37 35 31 26 24 22 20 20 19 18 15 14 14 15 15 14 12 9 9 10 9 12 13 15 17 20
57 62 60 52 45 39 35 33 28 22 17 13 11 10 9 8 9 7 6 7 6 6 3 3 5 6 9 12 13 15 16 19
60 61 54 46 40 36 34 30 23 17 14 11 10 9 8 6 3 3 5 5 4 3 2 3 2 3 7 9 11 14 15 12
57 55 48 43 39 35 31 28 26 24 21 17 13 10 8 6 4 4 3 4 4 4 3 3 4 4 7 9 10 13 14 16
52 47 42 39 39 37 36 34 31 27 22 17 12 8 6 4 3 2 1 1 2 3 3 3 4 6 9 11 13 15 13 15
45 42 40 40 42 42 39 36 29 26 22 18 15 12 8 6 5 4 3 4 6 8 9 6 2 6 10 14 15 15 11 5
44 43 43 43 40 39 35 32 28 24 22 20 18 15 12 10 7 7 7 10 11 11 9 7 7 8 8 9 10 7 7 5
41 38 38 38 37 37 33 30 29 25 24 22 20 18 16 14 10 10 8 8 7 7 6 7 8 8 7 4 2 3 0 5
38 41 39 37 34 33 33 30 29 27 26 24 22 21 19 16 13 11 10 8 7 5 5 6 6 5 4 3 3 4 9 9
35 36 32 33 32 30 28 26 26 26 26 25 22 21 18 17 13 10 8 5 4 4 4 3 4 4 6 7 7 8 10 13
Wind_Direction_500mb
280 276 262 255 259 264 266 256 253 252 249 248 249 250 251 253 256 260 264 265 267 270 272 273 272 271 269 268 269 269 271 273
282 270 264 255 252 256 260 260 255 252 252 254 255 254 251 252 255 260 262 265 270 273 275 275 276 275 273 272 273 273 275 274
269 255 253 253 251 254 257 259 258 259 260 259 259 258 256 255 257 263 267 269 271 273 272 275 276 275 273 273 274 274 275 276
275 263 257 256 251 248 255 263 263 256 255 256 255 256 257 259 262 265 267 268 269 270 270 270 271 276 274 274 273 272 273 276
242 207 127 141 181 206 224 250 262 263 260 259 259 258 257 258 259 260 262 262 263 264 265 268 271 270 274 277 276 278 279 279
253 237 240 213 195 204 215 237 255 261 263 262 260 259 256 255 255 256 257 258 257 258 261 264 262 263 269 269 268 273 273 278
250 249 246 245 246 252 259 266 271 271 269 267 264 259 257 257 256 256 256 255 255 253 252 253 253 257 260 266 267 275 272 280
239 244 246 243 250 262 270 274 276 274 270 266 265 265 264 263 262 261 259 257 252 250 247 247 249 252 251 262 264 269 276 280
245 239 236 238 245 258 267 271 276 276 272 269 264 259 256 255 255 254 253 251 249 245 248 251 255 260 263 269 273 277 279 282
248 247 237 235 246 261 265 270 274 268 262 259 257 256 255 252 249 249 248 251 255 258 261 266 272 276 288 300 296 295 294 297
258 231 222 229 240 244 252 262 265 263 258 251 243 241 243 243 241 239 231 245 251 253 263 279 297 306 303 298 296 296 302 297
236 219 217 223 228 235 247 252 253 248 239 229 220 212 209 211 221 213 212 217 241 261 258 251 300 303 305 296 292 293 293 291
211 207 211 216 222 231 235 235 222 205 181 172 162 157 153 157 169 196 199 206 218 252 306 314 294 288 290 297 294 293 292 309
203 203 204 208 213 216 214 198 176 160 156 152 152 153 160 164 180 193 215 230 232 226 242 283 284 253 261 276 285 290 296 301
202 199 199 197 195 190 186 173 167 159 157 154 145 139 137 149 166 172 296 325 311 330 310 270 284 292 288 289 291 288 287 301
194 191 188 186 185 180 175 168 165 162 157 153 154 151 147 139 113 97 101 71 63 57 49 39 302 267 255 263 266 271 282 272
181 181 176 173 177 174 171 165 163 162 154 149 147 141 132 123 110 92 68 58 47 39 30 18 350 331 319 297 282 291 285 274
170 169 167 164 168 164 161 159 156 155 149 144 141 135 130 119 108 84 73 52 50 45 27 24 8 0 356 18 51 69 62 283
162 158 159 160 161 157 155 153 152 151 148 144 143 140 133 128 121 102 81 61 48 50 51 44 35 13 10 350 358 337 333 317
149 148 148 145 145 146 143 143 144 143 141 139 139 134 129 121 110 100 106 115 119 116 79 70 44 24 360 353 329 319 312 310
Wind_Speed_850mb
59 53 54 58 56 57 55 65 70 74 79 84 87 89 85 82 78 73 69 73 73 71 69 68 67 66 67 71 71 76 78 80
42 39 35 40 47 53 57 54 59 63 70 76 80 82 84 87 79 75 75 72 70 66 65 65 63 61 62 64 64 69 68 69
35 37 35 33 35 36 41 51 50 49 54 58 62 67 73 76 77 72 69 66 64 60 61 60 59 58 59 60 59 60 63 64
21 22 26 29 23 21 21 22 27 33 38 44 47 50 52 58 63 63 62 61 59 58 60 61 60 59 62 60 59 61 61 61
13 4 7 7 6 8 9 11 15 21 27 34 41 45 49 54 58 60 58 58 58 57 55 58 57 56 57 57 53 54 57 57
24 14 8 5 5 5 4 5 8 12 16 22 29 38 45 51 56 57 57 56 52 50 50 49 53 51 56 56 53 64 55 68
32 26 18 18 17 16 16 18 21 25 27 29 30 32 34 37 39 41 45 49 51 52 52 51 53 51 53 60 51 46 39 43
49 37 31 30 28 27 29 29 30 33 34 36 36 35 34 33 32 31 30 30 30 31 35 38 41 42 41 47 47 50 48 51
62 54 47 42 38 36 36 35 34 37 37 35 32 30 29 28 26 23 21 21 22 22 25 30 31 37 43 47 46 40 38 39
71 67 55 49 41 39 39 34 32 31 31 30 29 27 26 23 21 19 16 15 15 15 17 20 20 21 20 17 20 21 22 25
74 65 61 53 46 41 37 35 31 26 24 22 20 20 19 18 15 14 14 15 15 14 12 9 9 10 9 12 13 15 17 20
57 62 60 52 45 39 35 33 28 22 17 13 11 10 9 8 9 7 6 7 6 6 3 3 5 6 9 12 13 15 16 19
60 61 54 46 40 36 34 30 23 17 14 11 10 9 8 6 3 3 5 5 4 3 2 3 2 3 7 9 11 14 15 12
57 55 48 43 39 35 31 28 26 24 21 17 13 10 8 6 4 4 3 4 4 4 3 3 4 4 7 9 10 13 14 16
52 47 42 39 39 37 36 34 31 27 22 17 12 8 6 4 3 2 1 1 2 3 3 3 4 6 9 11 13 15 13 15
45 42 40 40 42 42 39 36 29 26 22 18 15 12 8 6 5 4 3 4 6 8 9 6 2 6 10 14 15 15 11 5
44 43 43 43 40 39 35 32 28 24 22 20 18 15 12 10 7 7 7 10 11 11 9 7 7 8 8 9 10 7 7 5
41 38 38 38 37 37 33 30 29 25 24 22 20 18 16 14 10 10 8 8 7 7 6 7 8 8 7 4 2 3 0 5
38 41 39 37 34 33 33 30 29 27 26 24 22 21 19 16 13 11 10 8 7 5 5 6 6 5 4 3 3 4 9 9
35 36 32 33 32 30 28 26 26 26 26 25 22 21 18 17 13 10 8 5 4 4 4 3 4 4 6 7 7 8 10 13
Wind_Direction_850mb
280 276 262 255 259 264 266 256 253 252 249 248 249 250 251 253 256 260 264 265 267 270 272 273 272 271 269 268 269 269 271 273
282 270 264 255 252 256 260 260 255 252 252 254 255 254 251 252 255 260 262 265 270 273 275 275 276 275 273 272 273 273 275 274
269 255 253 253 251 254 257 259 258 259 260 259 259 258 256 255 257 263 267 269 271 273 272 275 276 275 273 273 274 274 275 276
275 263 257 256 251 248 255 263 263 256 255 256 255 256 257 259 262 265 267 268 269 270 270 270 271 276 274 274 273 272 273 276
242 207 127 141 181 206 224 250 262 263 260 259 259 258 257 258 259 260 262 262 263 264 265 268 271 270 274 277 276 278 279 279
253 237 240 213 195 204 215 237 255 261 263 262 260 259 256 255 255 256 257 258 257 258 261 264 262 263 269 269 268 273 273 278
250 249 246 245 246 252 259 266 271 271 269 267 264 259 257 257 256 256 256 255 255 253 252 253 253 257 260 266 267 275 272 280
239 244 246 243 250 262 270 274 276 274 270 266 265 265 264 263 262 261 259 257 252 250 247 247 249 252 251 262 264 269 276 280
245 239 236 238 245 258 267 271 276 276 272 269 264 259 256 255 255 254 253 251 249 245 248 251 255 260 263 269 273 277 279 282
248 247 237 235 246 261 265 270 274 268 262 259 257 256 255 252 249 249 248 251 255 258 261 266 272 276 288 300 296 295 294 297
258 231 222 229 240 244 252 262 265 263 258 251 243 241 243 243 241 239 231 245 251 253 263 279 297 306 303 298 296 296 302 297
236 219 217 223 228 235 247 252 253 248 239 229 220 212 209 211 221 213 212 217 241 261 258 251 300 303 305 296 292 293 293 291
211 207 211 216 222 231 235 235 222 205 181 172 162 157 153 157 169 196 199 206 218 252 306 314 294 288 290 297 294 293 292 309
203 203 204 208 213 216 214 198 176 160 156 152 152 153 160 164 180 193 215 230 232 226 242 283 284 253 261 276 285 290 296 301
202 199 199 197 195 190 186 173 167 159 157 154 145 139 137 149 166 172 296 325 311 330 310 270 284 292 288 289 291 288 287 301
194 191 188 186 185 180 175 168 165 162 157 153 154 151 147 139 113 97 101 71 63 57 49 39 302 267 255 263 266 271 282 272
181 181 176 173 177 174 171 165 163 162 154 149 147 141 132 123 110 92 68 58 47 39 30 18 350 331 319 297 282 291 285 274
170 169 167 164 168 164 161 159 156 155 149 144 141 135 130 119 108 84 73 52 50 45 27 24 8 0 356 18 51 69 62 283
162 158 159 160 161 157 155 153 152 151 148 144 143 140 133 128 121 102 81 61 48 50 51 44 35 13 10 350 358 337 333 317
149 148 148 145 145 146 143 143 144 143 141 139 139 134 129 121 110 100 106 115 119 116 79 70 44 24 360 353 329 319 312 310